Gold Coast Seaway Observation History
Time Wind Speed Temp Pressure Rel. Hum Rain
02/04:00pm NNE 9-12 kts 21.0°c 1020.3 hPa 60% 0.0mm
02/03:30pm NNE 10-13 kts 21.5°c 1020.3 hPa 59% 0.0mm
02/03:00pm NNE 10-13 kts 21.5°c 1020.3 hPa 59% 0.0mm
02/02:30pm NW 4-7 kts 22.9°c 1020.4 hPa 44% 0.0mm
02/02:00pm NNW 5-6 kts 22.2°c 1020.4 hPa 49% 0.0mm
02/01:30pm NW 6-9 kts 22.4°c 1020.5 hPa 47% 0.0mm
02/01:00pm NW 5-7 kts 22.0°c 1020.9 hPa 45% 0.0mm
02/12:30pm NW 7-10 kts 22.0°c 1021.3 hPa 45% 0.0mm
02/12:00pm WNW 7-11 kts 21.4°c 1021.9 hPa 47% 0.0mm
02/11:30am NW 4-5 kts 20.7°c 1022.3 hPa 59% 0.0mm
02/11:00am NNW 5-8 kts 20.3°c 1022.9 hPa 60% 0.0mm
02/10:30am NW 5-7 kts 20.0°c 1023.2 hPa 66% 0.0mm
02/10:00am NW 5-7 kts 18.1°c 1023.4 hPa 75% 0.0mm
02/09:30am NW 5-6 kts 17.3°c 1023.6 hPa 77% 0.0mm
02/09:00am NW 3-5 kts 16.2°c 1023.6 hPa 80% n/a
02/08:30am NW 3-5 kts 16.0°c 1023.4 hPa 81% n/a
02/08:00am WNW 3-5 kts 15.0°c 1023.1 hPa 84% n/a
02/07:30am W 4-5 kts 14.3°c 1023.1 hPa 88% n/a
02/07:00am WSW 3-4 kts 12.9°c 1022.7 hPa 88% n/a
02/06:30am WSW 3-4 kts 12.7°c 1022.4 hPa 86% n/a
02/06:00am CALM 0 kts 13.0°c 1022.3 hPa 85% n/a
02/05:30am WSW 4-6 kts 13.7°c 1022.0 hPa 86% n/a
02/05:00am WSW 4-5 kts 13.5°c 1021.7 hPa 87% n/a
02/04:30am WSW 4-5 kts 13.4°c 1021.7 hPa 86% n/a
02/04:00am W 3-5 kts 13.8°c 1021.5 hPa 87% n/a
02/03:30am W 3-5 kts 13.4°c 1021.4 hPa 88% n/a
02/03:00am WNW 4-5 kts 13.2°c 1021.6 hPa 88% n/a
02/02:30am WNW 3-5 kts 13.1°c 1021.5 hPa 86% n/a
02/02:00am WSW 4-5 kts 13.7°c 1021.8 hPa 86% n/a
02/01:30am WSW 4-5 kts 13.8°c 1021.9 hPa 86% 0.0mm
02/01:00am WSW 5-6 kts 13.9°c 1022.2 hPa 86% 0.0mm
02/12:30am SW 7-8 kts 14.0°c 1022.3 hPa 86% 0.0mm
02/12:00am SW 5-7 kts 14.1°c 1022.5 hPa 86% 0.0mm
Time Wind Speed Temp Pressure Rel. Hum Rain
01/11:30pm WSW 5-6 kts 14.1°c 1022.8 hPa 86% 0.0mm
01/11:00pm W 4-5 kts 14.4°c 1022.5 hPa 85% 0.0mm
01/10:30pm WSW 4-5 kts 14.5°c 1022.6 hPa 85% 0.0mm
01/10:00pm WSW 4-6 kts 14.7°c 1022.8 hPa 85% 0.0mm
01/09:30pm SW 4-5 kts 15.0°c 1022.7 hPa 84% 0.0mm
01/09:00pm SW 4-5 kts 15.2°c 1022.8 hPa 82% 0.0mm
01/08:30pm WSW 4-5 kts 16.1°c 1022.9 hPa 80% 0.0mm
01/08:00pm W 4-5 kts 16.1°c 1022.6 hPa 78% 0.0mm
01/07:30pm W 3-4 kts 16.6°c 1022.4 hPa 73% 0.0mm
01/07:00pm NE 6-9 kts 18.0°c 1022.1 hPa 73% 0.0mm
01/06:30pm NE 5-8 kts 17.7°c 1021.8 hPa 70% 0.0mm
01/06:00pm NNE 5-8 kts 17.5°c 1021.5 hPa 71% 0.0mm
01/05:30pm NE 5-26 kts 17.9°c 1021.3 hPa 71% 0.0mm
01/05:00pm NE 7-9 kts 18.1°c 1020.9 hPa 69% 0.0mm
01/04:30pm NE 7-10 kts 19.0°c 1020.7 hPa 67% 0.0mm
01/04:00pm ENE 9-11 kts 19.2°c 1020.4 hPa 68% 0.0mm
01/03:30pm ENE 9-11 kts 18.9°c 1020.5 hPa 68% 0.0mm
01/03:00pm ENE 7-8 kts 20.0°c 1020.9 hPa 64% 0.0mm
01/02:30pm ENE 7-9 kts 20.1°c 1020.7 hPa 67% 0.0mm
01/02:00pm ENE 7-8 kts 19.6°c 1020.8 hPa 65% 0.0mm
01/01:30pm E 6-8 kts 20.6°c 1021.2 hPa 62% 0.0mm
01/01:00pm ENE 6-8 kts 20.5°c 1021.3 hPa 63% 0.0mm
01/12:30pm ENE 6-9 kts 20.6°c 1021.7 hPa 63% 0.0mm
01/12:00pm E 5-7 kts 20.6°c 1022.3 hPa 62% 0.0mm
01/11:30am E 7-9 kts 20.3°c 1022.7 hPa 63% 0.0mm
01/11:00am ESE 7-8 kts 20.0°c 1023.1 hPa 59% 0.0mm
01/10:30am SE 6-7 kts 20.1°c 1023.4 hPa 55% 0.0mm
01/10:00am S 4-6 kts 19.5°c 1023.8 hPa 61% 0.0mm
01/09:30am WSW 5-7 kts 18.9°c 1024.0 hPa 63% 0.0mm
01/09:00am WSW 4-6 kts 16.8°c 1024.0 hPa 70% 0.0mm
01/08:30am WSW 4-7 kts 15.9°c 1024.0 hPa 74% 0.0mm
01/08:00am WSW 5-7 kts 15.3°c 1023.9 hPa 77% 0.0mm
01/07:30am SW 7-9 kts 14.8°c 1023.7 hPa 79% 0.0mm
01/07:00am SW 7-8 kts 14.4°c 1023.4 hPa 81% 0.0mm
01/06:30am WSW 4-6 kts 14.4°c 1023.2 hPa 82% 0.0mm
01/06:00am SW 6-7 kts 14.2°c 1022.7 hPa 83% 0.0mm
01/05:30am WSW 5-6 kts 14.0°c 1022.5 hPa 84% 0.0mm
01/05:00am W 4-5 kts 13.8°c 1022.3 hPa 84% 0.0mm
01/04:30am W 4-5 kts 14.4°c 1022.2 hPa 85% 0.0mm
01/04:00am CALM 0-2 kts 13.9°c 1022.3 hPa 80% 0.0mm
01/03:30am W 4-5 kts 14.9°c 1022.6 hPa 80% 0.0mm
01/03:00am SW 1-5 kts 15.0°c 1022.6 hPa 81% 0.0mm
01/02:30am SW 2-4 kts 15.2°c 1022.4 hPa 80% 0.0mm
01/02:00am SW 4-5 kts 15.4°c 1022.4 hPa 81% 0.0mm
01/01:30am W 3-7 kts 15.8°c 1022.6 hPa 82% 0.0mm
01/01:00am W 4-7 kts 16.0°c 1022.9 hPa 81% 0.0mm
01/12:30am NW 2-4 kts 16.4°c 1023.1 hPa 82% 0.0mm
01/12:00am NW 5-6 kts 16.6°c 1023.4 hPa 81% 0.0mm
Time Wind Speed Temp Pressure Rel. Hum Rain
30/11:30pm NW 5-7 kts 16.6°c 1023.6 hPa 77% 0.0mm
30/11:00pm NW 4-7 kts 16.3°c 1023.8 hPa 73% 0.0mm
30/10:30pm WSW 4-6 kts 16.2°c 1023.6 hPa 73% 0.0mm
30/10:00pm SW 5-6 kts 16.3°c 1023.6 hPa 73% 0.0mm
30/09:30pm SW 6-8 kts 16.3°c 1023.7 hPa 72% 0.0mm
30/09:00pm SW 6-9 kts 16.3°c 1023.5 hPa 72% 0.0mm
30/08:30pm SSW 6-9 kts 16.4°c 1023.5 hPa 71% 0.0mm
30/08:00pm SSW 7-10 kts 16.5°c 1023.7 hPa 70% 0.0mm
30/07:30pm SSW 6-10 kts 16.5°c 1023.6 hPa 69% 0.0mm
30/07:00pm S 7-10 kts 17.2°c 1023.3 hPa 69% 0.0mm
30/06:30pm S 8-13 kts 17.4°c 1023.2 hPa 67% 0.0mm
30/06:00pm SSE 11-15 kts 18.1°c 1022.9 hPa 67% 0.0mm
30/05:30pm SSE 11-16 kts 18.2°c 1022.6 hPa 69% 0.0mm
30/05:00pm SSE 12-16 kts 18.3°c 1022.3 hPa 67% 0.0mm
30/04:30pm SE 12-15 kts 18.7°c 1022.1 hPa 64% 0.0mm
30/04:00pm SSE 11-15 kts 19.4°c 1022.2 hPa 63% 0.0mm
30/03:30pm SE 12-15 kts 19.7°c 1022.3 hPa 57% 0.0mm
30/03:00pm SE 12-15 kts 20.2°c 1022.2 hPa 57% 0.0mm
30/02:30pm SE 12-14 kts 19.9°c 1022.2 hPa 53% 0.0mm
30/02:00pm SE 11-15 kts 21.1°c 1022.4 hPa 52% 0.0mm
30/01:30pm SSE 8-12 kts 21.1°c 1022.6 hPa 55% 0.0mm
30/01:00pm SSE 10-13 kts 20.8°c 1022.9 hPa 54% 0.0mm
30/12:30pm SSE 9-14 kts 21.0°c 1023.1 hPa 52% 0.0mm
30/12:00pm SSE 9-13 kts 21.5°c 1023.5 hPa 55% 0.0mm
30/11:30am SSE 10-13 kts 20.6°c 1024.0 hPa 56% 0.0mm
30/11:00am SSE 10-15 kts 19.9°c 1024.5 hPa 59% 0.0mm
30/10:30am S 9-12 kts 19.7°c 1024.8 hPa 58% 0.0mm
30/10:00am S 7-10 kts 19.2°c 1024.9 hPa 65% 0.0mm
30/09:30am SSW 5-8 kts 17.8°c 1025.1 hPa 68% 0.0mm
30/09:00am SSW 5-8 kts 16.6°c 1025.0 hPa 71% 0.2mm
30/08:30am SSW 7-9 kts 15.7°c 1024.7 hPa 76% 0.2mm
30/08:00am SW 5-6 kts 14.5°c 1024.6 hPa 82% 0.2mm
30/07:30am WSW 4-6 kts 13.3°c 1024.4 hPa 81% 0.2mm
30/07:00am WSW 4-6 kts 12.9°c 1024.2 hPa 82% 0.2mm
30/06:30am SW 5-6 kts 12.9°c 1024.0 hPa 83% 0.2mm
30/06:00am WSW 4-5 kts 12.8°c 1023.8 hPa 85% 0.2mm
30/05:30am SW 5-7 kts 12.6°c 1023.6 hPa 84% 0.2mm
30/05:00am SW 5-6 kts 12.6°c 1023.3 hPa 83% 0.2mm
30/04:30am SW 5 kts 12.8°c 1023.2 hPa 83% 0.2mm
30/04:00am SW 5-6 kts 13.4°c 1023.1 hPa 82% 0.2mm
30/03:30am SSW 4-5 kts 13.7°c 1023.2 hPa 79% 0.2mm
30/03:00am S 6-9 kts 14.6°c 1023.3 hPa 77% 0.2mm
30/02:30am SSE 11-16 kts 15.4°c 1023.7 hPa 80% 0.2mm
30/02:00am S 5-6 kts 13.9°c 1023.8 hPa 83% 0.2mm
30/01:30am WSW 1-4 kts 14.3°c 1024.4 hPa 85% 0.2mm
30/01:00am SW 3-4 kts 14.4°c 1025.0 hPa 82% 0.2mm
30/12:30am N 2-4 kts 14.8°c 1025.3 hPa 75% 0.0mm
30/12:00am SW 4-6 kts 14.3°c 1025.0 hPa 74% 0.0mm